www.pogodaiklimat.ru

Погода и климат >> Архив погоды >> Австрия >> Файстриц-об-Блайбург


ПОГОДА в Файстриц-об-Блайбурге

  • Прогноз погоды в Файстриц-об-Блайбурге
  • Монитор погоды в Файстриц-об-Блайбурге

АРХИВ ПОГОДЫ в Файстриц-об-Блайбурге

Время (UTC), дата Ветер
(напр.,м/с)
 
Видим.   Явления Облачность Т
(С)
Тd
(С)
f
(%)
Тe
(С)
Тes
(С)
Комфортность P
(гПа)
Po
(гПа)
Тmin
(С)
Tmax
(С)
R
(мм)
R24
(мм)
S
(см)
19 18.08 штиль 0 н/о н/о +19.8 +15.8 78 +22 +22 комфорт 1013.0 952.9
20 18.08 Ю 1 н/о н/о +19.4 +15.5 78 +22 +22 комфорт 1013.6 953.4
21 18.08 ЮВ 1 н/о н/о +17.4 +14.1 81 +18 +18 1014.4 953.7
22 18.08 штиль 0 н/о н/о +17.0 +13.8 81 +17 +17 1014.9 954.1
23 18.08 ЮВ 1 н/о н/о +15.5 +12.8 84 +16 +16 1015.3 954.1
00 19.08 ЮВ 1 н/о н/о +15.8 +13.0 83 +16 +16 1015.1 954.0
01 19.08 штиль 0 н/о н/о +15.2 +12.6 84 +15 +15 1015.4 954.2
02 19.08 штиль 0 н/о н/о +14.7 +12.7 88 +14 +14 1015.4 954.1
03 19.08 ЮВ 1 н/о н/о +13.7 +12.1 90 +14 +14 1015.8 954.2
04 19.08 штиль 0 н/о н/о +13.3 +12.1 92 +13 +13 1016.2 954.5
05 19.08 ЮЗ 1 50 км ясно +14.9 +12.9 88 +15 +16 1016.0 954.7
06 19.08 З 1 50 км 1/0
[Ac lent]
+17.6 +14.4 82 +19 +21 1016.1 955.4 +13.0 +23.8
07 19.08 С 1 н/о н/о +20.5 +15.6 73 +24 +24 комфорт 1015.7 955.6
08 19.08 СЗ 1 н/о н/о +22.1 +16.0 68 +26 +26 душно 1015.5 955.7
09 19.08 С 1 н/о н/о +25.4 +18.0 64 +30 +30 душно 1015.0 955.9
10 19.08 С 1 н/о н/о +26.5 +17.9 59 +31 +31 душно 1015.1 956.2
11 19.08 В 3 н/о н/о +27.6 +18.3 57 +32 +32 очень
душно
1014.4 955.8
12 19.08 В 4 45 км 3/1 1500 м
[Cu med, cong Ci fib]
+28.0 +17.0 51 +32 +40 душно 1014.1 955.6
13 19.08 В 5 н/о н/о +27.2 +17.0 54 +31 +31 душно 1014.3 955.6
14 19.08 В 5 н/о н/о +27.7 +17.7 54 +32 +32 очень
душно
1013.9 955.3
15 19.08 В 5 н/о н/о +27.4 +16.8 52 +31 +31 душно 1013.5 954.9
16 19.08 В 6 н/о н/о +27.1 +17.5 56 +31 +31 душно 1013.1 954.5
17 19.08 В 3 н/о н/о +26.0 +17.0 58 +30 +30 душно 1013.5 954.6
18 19.08 З 1 15 км осадки на расстоянии 8/5 1000 м
[Cb calv Ci fib]
+23.5 +17.5 69 +27 +27 душно 1015.4 955.9 +17.6 +28.4
19 19.08 С 3 н/о н/о +20.7 +15.4 72 +24 +24 комфорт 1018.0 957.8
20 19.08 Ю 1 н/о н/о +19.6 +15.2 76 +23 +23 комфорт 1018.3 957.8
21 19.08 ЮЗ 1 н/о н/о +18.0 +15.0 83 +19 +19 1018.9 958.1
22 19.08 Ю 1 н/о н/о +16.7 +14.7 88 +18 +18 1019.6 958.5
23 19.08 штиль 0 н/о н/о +16.0 +14.2 89 +16 +16 1019.5 958.2
00 20.08 ЮЗ 1 н/о н/о +15.8 +14.5 92 +16 +16 1019.8 958.5
01 20.08 штиль 0 н/о н/о +15.5 +14.5 94 +15 +15 1020.0 958.6
02 20.08 штиль 0 н/о н/о +14.9 +14.0 94 +15 +15 1020.1 958.6
03 20.08 ЮВ 1 н/о н/о +15.1 +14.3 95 +16 +16 1020.4 958.9
04 20.08 ЮЗ 1 н/о н/о +14.4 +13.9 97 +15 +15 1020.8 959.1
05 20.08 ЮВ 1 10 км 9/9 300 м
[St]
+15.2 +14.4 95 +16 +16 1020.6 959.1
06 20.08 штиль 0 10 км 9/9 300 м
[St]
+17.3 +16.4 94 +17 +18 1020.3 959.3 +14.1 +23.3
07 20.08 СЗ 1 н/о н/о +18.3 +16.2 88 +20 +20 1020.4 959.6
08 20.08 СВ 1 н/о н/о +20.0 +17.2 84 +24 +24 комфорт 1020.0 959.6
09 20.08 СЗ 1 н/о н/о +21.6 +17.3 77 +26 +26 душно 1019.9 959.8
10 20.08 штиль 0 н/о н/о +23.8 +18.2 71 +28 +28 душно 1019.1 959.5 0.0
11 20.08 ЮЗ 1 н/о н/о +24.7 +17.3 63 +29 +29 душно 1018.4 959.0 0.0
12 20.08 штиль 0 40 км 1/1 1000 м
[Cu hum Ci fib]
+25.3 +18.0 64 +30 +47 душно 1017.7 958.5
13 20.08 Ю 1 н/о н/о +27.1 +18.2 58 +32 +32 очень
душно
1016.6 957.8 0.0
14 20.08 ЮВ 2 н/о н/о +27.7 +19.0 59 +33 +33 очень
душно
1016.2 957.5
15 20.08 ЮВ 2 н/о н/о +28.1 +18.1 55 +33 +33 очень
душно
1015.6 957.0 0.0
16 20.08 ЮВ 2 н/о н/о +27.8 +18.6 57 +33 +33 очень
душно
1015.4 956.8
17 20.08 В 2 н/о н/о +27.2 +19.0 61 +32 +32 очень
душно
1015.3 956.6
18 20.08 Ю 1 40 км 1/1 1500 м
[Cu hum Ci fib]
+23.3 +18.6 75 +29 +29 душно 1016.3 956.8 +17.3 +28.5
19 20.08 ЮВ 2 н/о н/о +21.6 +17.3 77 +26 +26 душно 1017.0 957.1
20 20.08 Ю 1 н/о н/о +19.7 +16.1 80 +23 +23 комфорт 1017.8 957.4
21 20.08 штиль 0 н/о н/о +18.9 +15.4 80 +20 +20 1018.1 957.5
22 20.08 ЮВ 2 н/о н/о +19.3 +15.6 79 +22 +22 комфорт 1017.9 957.4
23 20.08 ЮЗ 1 н/о н/о +17.6 +14.8 84 +19 +19 1018.4 957.5
00 21.08 ЮВ 1 н/о н/о +17.3 +15.2 87 +18 +18 1018.6 957.7
01 21.08 ЮВ 1 н/о н/о +17.1 +14.9 87 +18 +18 1019.0 958.0
02 21.08 штиль 0 н/о н/о +16.9 +15.2 90 +17 +17 1019.3 958.2
03 21.08 ЮЗ 1 н/о н/о +17.3 +15.9 91 +18 +18 1019.6 958.6
04 21.08 ЮЗ 1 н/о н/о +17.8 +16.5 92 +19 +19 1020.0 959.1
05 21.08 С 1 н/о н/о +18.7 +17.6 93 +21 +21 комфорт 1021.0 960.3
06 21.08 ЮВ 1 20 км 10/10 600 м
[St]
+19.7 +16.6 82 +23 +23 комфорт 1021.4 960.8 +16.5 +23.8
07 21.08 В 1 н/о н/о +20.3 +13.2 64 +24 +24 комфорт 1022.1 961.5
08 21.08 штиль 0 н/о н/о +20.1 +14.3 69 +22 +22 комфорт 1022.5 961.9
09 21.08 В 2 н/о н/о +20.4 +13.5 65 +23 +23 комфорт 1023.0 962.4
10 21.08 З 1 н/о н/о +20.4 +13.2 63 +24 +24 комфорт 1023.1 962.5
11 21.08 В 1 н/о н/о +20.1 +14.2 69 +23 +23 комфорт 1023.4 962.7
12 21.08 В 4 15 км в посл. час гроза 10/9 1000 м
[Frnb As trans]
+21.0 +15.1 69 +24 +25 комфорт 1023.2 962.7
13 21.08 ЮВ 2 н/о н/о +19.1 +13.1 68 +21 +21 комфорт 1024.2 963.2
14 21.08 СЗ 1 н/о ливневой дождь {осадки} н/о +17.5 +16.1 91 +19 +19 1024.3 963.1 3
15 21.08 В 1 н/о {ливн. осадки} н/о +19.3 +16.6 84 +22 +22 комфорт 1023.8 963.0 3
16 21.08 СВ 1 н/о н/о +19.2 +17.3 89 +22 +22 комфорт 1024.1 963.3
17 21.08 В 2 н/о н/о +18.8 +17.8 94 +21 +21 комфорт 1023.9 963.0
18 21.08 СЗ 1 15 км {ливн. осадки} 10/10 1000 м
[St]
+17.5 +16.7 95 +19 +19 1024.3 963.1 +16.7 +21.0 3
19 21.08 З 1 н/о н/о +16.4 +15.9 97 +17 +17 1025.0 963.5
20 21.08 В 2 н/о н/о +16.2 +15.2 94 +16 +16 1024.9 963.4
21 21.08 СВ 1 н/о н/о +15.8 +14.2 90 +16 +16 1025.5 963.8
22 21.08 ЮВ 2 н/о н/о +15.8 +14.7 93 +16 +16 1025.8 964.1
23 21.08 В 2 н/о н/о +15.9 +14.1 89 +16 +16 1025.4 963.7
00 22.08 В 2 н/о н/о +15.7 +13.9 89 +16 +16 1025.2 963.5 0.0
01 22.08 ЮЗ 1 н/о в посл. час осадки н/о +15.0 +14.3 96 +15 +15 1025.3 963.5 0.0
02 22.08 В 2 н/о н/о +14.9 +14.3 96 +15 +15 1024.5 962.7 0.0
03 22.08 ЮЗ 1 н/о {осадки} н/о +14.6 +14.2 97 +15 +15 1025.5 963.6 0.0
04 22.08 В 2 н/о в посл. час осадки н/о +14.5 +14.2 98 +14 +14 1024.8 962.9 0.0
05 22.08 С 1 н/о н/о +14.5 +13.9 96 +15 +15 1024.8 962.9
06 22.08 ЮЗ 1 4000 м в посл. час дождь 9/9 100 м
[Frnb]
+15.5 +14.5 94 +16 +16 1025.2 963.5 +14.3 +17.5 0.0
07 22.08 ЮЗ 1 н/о н/о +16.4 +14.3 87 +17 +17 1024.8 963.3
08 22.08 С 1 н/о н/о +16.7 +14.8 89 +18 +18 1024.9 963.5 0.0
09 22.08 СЗ 1 н/о н/о +17.3 +14.8 85 +18 +18 1024.7 963.4 0.0
10 22.08 С 1 н/о н/о +19.3 +15.5 79 +22 +22 комфорт 1023.9 963.1
11 22.08 З 1 н/о н/о +20.8 +16.4 76 +25 +25 комфорт 1023.6 963.1
12 22.08 штиль 0 20 км 10/10 600 м
[Cu Sc]
+20.2 +15.7 75 +23 +23 комфорт 1023.3 962.7 0.0
13 22.08 ЮЗ 1 н/о н/о +21.0 +15.8 72 +26 +26 душно 1023.0 962.6
14 22.08 В 1 н/о н/о +20.7 +16.1 75 +25 +25 комфорт 1022.7 962.2
15 22.08 В 1 н/о н/о +22.1 +16.9 72 +26 +26 душно 1021.9 961.8 0.0
16 22.08 В 2 н/о н/о +20.2 +15.9 76 +24 +24 комфорт 1022.1 961.6
17 22.08 В 1 н/о н/о +20.5 +16.1 76 +25 +25 комфорт 1022.1 961.6
18 22.08 ЮВ 1 20 км 8/3 1000 м
[St Ac lent Cs]
+18.2 +15.9 86 +20 +20 1023.1 962.1 +15.7 +22.3
19 22.08 ЮВ 2 н/о н/о +17.4 +15.1 86 +18 +18 1023.9 962.7
20 22.08 В 2 н/о н/о +17.3 +15.6 90 +18 +18 1024.4 963.1
21 22.08 ЮВ 2 н/о н/о +17.8 +15.4 86 +18 +18 1024.4 963.2
22 22.08 В 2 н/о н/о +17.8 +15.4 86 +18 +18 1024.3 963.1
23 22.08 В 1 н/о н/о +17.7 +14.5 82 +19 +19 1024.5 963.3
00 23.08 ЮВ 2 н/о н/о +17.5 +14.4 82 +18 +18 1024.5 963.2
01 23.08 В 2 н/о н/о +17.7 +14.0 79 +18 +18 1024.4 963.2
02 23.08 В 1 н/о н/о +17.3 +14.3 83 +18 +18 1024.5 963.2
03 23.08 ЮВ 2 н/о н/о +17.1 +14.1 83 +17 +17 1024.3 963.0 0.0
04 23.08 ЮЗ 1 н/о н/о +16.3 +14.7 90 +17 +17 1024.6 963.1 0.0
05 23.08 штиль 0 20 км 10/10 1000 м
[Sc]
+16.6 +15.2 91 +16 +16 1025.0 963.5
06 23.08 В 1 20 км 10/10 600 м
[Sc]
+17.1 +15.5 90 +18 +18 1024.8 963.5 +16.1 +18.3
07 23.08 В 1 н/о н/о +17.5 +15.7 89 +19 +19 1024.9 963.6
08 23.08 В 3 н/о н/о +18.9 +15.1 79 +20 +20 1024.7 963.7
09 23.08 ЮВ 4 н/о н/о +19.8 +14.9 73 +22 +22 комфорт 1024.4 963.6
10 23.08 В 4 н/о н/о +20.1 +15.7 76 +23 +23 комфорт 1024.2 963.5
11 23.08 В 4 н/о н/о +19.7 +15.3 76 +22 +22 комфорт 1024.6 963.8
12 23.08 В 4 15 км {ливн. осадки} 10/10 600 м
[Sc]
+20.5 +16.2 76 +24 +24 комфорт 1024.0 963.4 0.0
13 23.08 В 2 н/о н/о +20.8 +16.5 76 +25 +25 комфорт 1023.8 963.3
14 23.08 В 1 н/о н/о +21.8 +16.8 73 +26 +26 душно 1023.3 963.0 0.0
15 23.08 СВ 2 н/о н/о +22.6 +17.5 73 +28 +28 душно 1022.2 962.2 0.0
16 23.08 В 2 н/о н/о +22.0 +16.9 73 +26 +26 душно 1022.1 961.9
17 23.08 З 1 н/о н/о +20.9 +17.5 81 +26 +26 душно 1022.4 962.0
18 23.08 штиль 0 10 км 9/9 300 м
[Sc]
+20.0 +17.6 86 +23 +23 комфорт 1022.8 962.2 +17.1 +23.0 0.0
19 23.08 штиль 0 н/о н/о +19.0 +17.6 92 +20 +20 1023.4 962.6
20 23.08 Ю 1 н/о н/о +18.0 +17.0 94 +19 +19 1024.0 962.9
21 23.08 Ю 1 н/о н/о +17.9 +16.8 93 +19 +19 1023.7 962.6
22 23.08 штиль 0 н/о н/о +17.8 +16.9 94 +18 +18 1023.3 962.2
23 23.08 З 1 н/о н/о +17.9 +17.2 96 +19 +19 1023.2 962.2
00 24.08 ЮЗ 1 н/о н/о +18.2 +17.3 94 +20 +20 1023.1 962.1
01 24.08 штиль 0 н/о в посл. час осадки н/о +17.7 +17.1 96 +18 +18 1023.0 961.9 0.3
02 24.08 ЮЗ 1 н/о н/о +17.7 +17.1 96 +19 +19 1023.0 961.9 0.0
03 24.08 Ю 1 н/о в посл. час осадки н/о +17.8 +17.3 97 +19 +19 1022.5 961.5 0.5
04 24.08 штиль 0 н/о н/о +17.8 +17.5 98 +18 +18 1022.5 961.5
05 24.08 штиль 0 2000 м дымка 10/10 50 м
[Sc]
+18.0 +17.5 97 +18 +18 1022.1 961.2
06 24.08 З 1 2000 м дымка {дождь} 10/10 50 м
[Sc]
+18.2 +17.7 97 +20 +20 1022.2 961.3 +17.6 +20.1 0.5
07 24.08 С 1 н/о н/о +18.8 +17.8 94 +21 +21 комфорт 1022.0 961.2
08 24.08 С 1 н/о н/о +20.2 +18.7 91 +25 +25 комфорт 1021.7 961.3
09 24.08 СЗ 1 н/о н/о +21.1 +18.1 83 +25 +25 комфорт 1021.7 961.4
10 24.08 С 2 н/о в посл. час осадки н/о +21.4 +17.7 79 +26 +26 душно 1021.4 961.2 0.1
11 24.08 СЗ 2 н/о н/о +22.6 +19.0 80 +28 +28 душно 1020.7 960.8 0.0
12 24.08 С 1 15 км {ливн. осадки} 8/5 300 м
[Cb calv Cs]
+23.0 +18.8 77 +29 +36 очень
душно
1020.0 960.2 0.1
13 24.08 З 1 н/о н/о +23.7 +19.2 76 +29 +29 душно 1019.3 959.7 0.0
14 24.08 З 2 н/о н/о +22.7 +18.6 78 +28 +28 душно 1019.5 959.7
15 24.08 СЗ 1 н/о осадки н/о +19.7 +17.4 87 +23 +23 комфорт 1020.4 959.9 1
16 24.08 штиль 0 н/о н/о +18.2 +17.5 96 +19 +19 1020.9 960.1 8
17 24.08 штиль 0 н/о в посл. час осадки н/о +18.3 +17.7 96 +19 +19 1020.4 959.6 0.5
18 24.08 З 1 4000 м слаб. ливневой дождь, в посл. час гроза 10/10 100 м
[Cb cap]
+18.1 +17.8 98 +19 +19 1021.4 960.5 +18.0 +24.5 15
19 24.08 В 1 н/о осадки н/о +16.7 +15.9 95 +18 +18 1022.9 961.6 3
20 24.08 З 1 н/о н/о +16.1 +15.7 97 +17 +17 1022.4 961.0 5
21 24.08 В 2 н/о осадки н/о +16.3 +15.9 97 +16 +16 1022.6 961.2 12
22 24.08 СЗ 1 н/о осадки н/о +15.9 +15.7 99 +17 +17 1021.8 960.4 2
23 24.08 ЮЗ 1 н/о в посл. час осадки н/о +15.5 +15.3 99 +16 +16 1021.5 960.0 0.1
00 25.08 З 1 н/о в посл. час осадки н/о +15.7 +15.4 98 +16 +16 1021.3 959.9 14
01 25.08 ЮВ 2 н/о н/о +15.4 +15.1 98 +15 +15 1021.0 959.5
02 25.08 ЮЗ 1 н/о н/о +15.2 +15.0 99 +16 +16 1021.2 959.7
03 25.08 штиль 0 н/о н/о +15.1 +14.9 99 +15 +15 1021.3 959.7
04 25.08 Ю 1 н/о н/о +14.6 +14.4 99 +15 +15 1021.5 959.8
05 25.08 штиль 0 2000 м дымка 10/10 50 м
[Sc]
+15.1 +14.8 98 +15 +15 1021.7 960.1
06 25.08 штиль 0 4000 м дымка 9/9 100 м
[Sc]
+15.7 +15.4 98 +15 +16 1021.5 960.1 +14.5 +18.1 14
07 25.08 штиль 0 н/о н/о +17.7 +16.6 93 +18 +18 1021.2 960.2
08 25.08 СЗ 1 н/о н/о +18.1 +16.5 90 +19 +19 1021.7 960.8 0.0
09 25.08 З 1 н/о н/о +18.7 +15.9 84 +21 +21 комфорт 1021.6 960.8 0.0
10 25.08 ЮЗ 1 н/о н/о +19.4 +15.9 80 +22 +22 комфорт 1021.0 960.4
11 25.08 ЮВ 1 н/о н/о +21.7 +17.8 78 +26 +26 душно 1020.1 960.0
12 25.08 ЮВ 3 15 км 8/5 600 м
[Cb calv Cs]
+22.4 +17.4 73 +27 +32 душно 1019.6 959.7
13 25.08 В 2 н/о н/о +24.2 +18.9 72 +29 +29 душно 1018.6 959.1
14 25.08 В 2 н/о н/о +24.4 +17.8 67 +29 +29 душно 1018.0 958.6
15 25.08 ЮВ 1 н/о н/о +24.2 +17.2 65 +28 +28 душно 1017.9 958.4
16 25.08 ЮВ 2 н/о н/о +23.9 +17.8 69 +28 +28 душно 1017.6 958.1 0.0
17 25.08 В 2 н/о н/о +22.5 +18.0 76 +28 +28 душно 1018.0 958.2
18 25.08 В 2 20 км 8/3 1000 м
[Cb calv Cs]
+21.1 +17.5 80 +25 +25 комфорт 1018.9 958.8 +15.7 +24.6

 

Местоположение метеостанции Файстриц-об-Блайбург (Австрия): широта 46.57 долгота 14.77 высота над уровнем моря 527 м.

В архиве по умолчанию представлена погода в Файстриц-об-Блайбурге за последнюю неделю. Архивные данные за месяц целиком и за предыдущие месяцы, начиная с января 2011 года, Вы можете получить, выбрав интересующий диапазон дат из раскрывающегося списка и нажав кнопку "Ввод!".


*Определитесь, кто Вы:
робот инопланетянин человек

Внимание! Время в таблицах - всемирное. Для получения местного времени необходимо прибавить поправку, которая равна 1 ч.

Смотрите также архив погоды в соседних городах и на ближайших метеорологических станциях:

Погода Айзенкаппель-Феллах (Австрия) (16 км)
Погода в Санкт-Андре (Австрия) (23 км)
Погода в Словень-Градеце (Словения) (29 км)
Погода в Клагенфурте (Австрия) (35 км)
Погода в Клагенфурте (Австрия) (35 км)
Погода в Прайтенеге (Австрия) (42 км)
Погода в Дойчландсберге (Австрия) (45 км)
Погода в Любляне (Словения) (45 км)
Погода в Пёрчах-ам-Вёртерзе (Австрия) (46 км)
Погода в Лесце (Словения) (50 км)

Пояснения к столбцам:

Ветер - указаны скорость ветра в м/с - средняя за 10 мин, порывы в срок и между сроками (в фигурных скобках) и направление, откуда дует ветер: С - северный, СВ - северо-восточный, В - восточный, ЮВ - юго-восточный, Ю - южный, ЮЗ - юго-западный, З - западный, СЗ - северо-западный.
Видимость - горизонтальная дальность видимости в метрах или километрах. При видимости от 1 до 10 км при отсутствии осадков обычно наблюдается дымка, при ухудшении видимости до 1 км и менее - туман. В сухую погоду видимость может ухудшаться дымом, пылью или мглою.
Явления - указаны атмосферные явления, наблюдавшиеся в срок или в последний час перед сроком; фигурными скобками обозначены явления, наблюдавшиеся между сроками (за 1-3 часа до срока); квадратными скобками обозначены град или гололедные отложения с указанием их диаметра в мм.
Облачность - указаны через наклонную черту общая и нижняя облачность в баллах и высота нижней границы облаков в метрах; квадратными скобками обозначены формы облаков: Ci - перистые, Cs - перисто-слоистые, Cc - перисто-кучевые, Ac - высококучевые, As - высокослоистые, Sc - слоисто-кучевые, Ns - слоисто-дождевые, Cu - кучевые, Cb - кучево-дождевые. Подробнее классификацию облаков см. в Атласе облаков (PDF).
T - Температура воздуха - температура, измеренная на высоте 2 м над землей.
Td - Температура точки росы - температура, при понижении до которой содержащийся в воздухе водяной пар достигнет насыщения.
f - Относительная влажность воздуха - влажноcть воздуха, измеренная на высоте 2 м над землей.
Te - Эффективная температура - температура, которую ощущает одетый по сезону человек в тени. Характеристика душности погоды. При расчете учитывается влияние влажности воздуха и скорости ветра на теплоощущения человека.
Tes - Эффективная температура на солнце - температура, которую ощущает человек, с поправкой на солнечный нагрев. Характеристика знойности погоды. Зависит от высоты солнца над горизонтом, облачности и скорости ветра. Ночью, в пасмурную погоду, а также при ветре 12 м/с и более поправка равна нулю.
P - Атмосферное давление - приведенное к уровню моря атмосферное давление.
Po - Атмосферное давление - измеренное на уровне метеостанции атмосферное давление.
Tmin - Минимальная температура - минимум температуры воздуха на высоте 2 м над землей.
Tmax - Максимальная температура - максимум температуры воздуха на высоте 2 м над землей.
R - Количество осадков - Количество выпавших осадков за период времени, мм. При наведении курсора мыши на число - период времени, за который выпало указанное количество осадков.
R24 - Количество осадков - Количество выпавших осадков за 24 часа, мм.
S - Снежный покров - Высота снежного покрова, см. При наведении курсора мыши на число - состояние снежного покрова и степень покрытия местности в баллах.